TimeHST,TemperatureF,Dew PointF,Humidity,Sea Level PressureIn,VisibilityMPH,Wind Direction,Wind SpeedMPH,Gust SpeedMPH,PrecipitationIn,Events,Conditions,WindDirDegrees,DateUTC
12:17 AM,64.4,60.8,88,29.88,10.0,NW,5.8,-,N/A,,Mostly Cloudy,320,2013-01-17 10:17:00
12:20 AM,64.4,60.8,88,29.88,10.0,NW,5.8,-,N/A,,Mostly Cloudy,320,2013-01-17 10:20:00
12:55 AM,63.3,61.0,92,29.88,10.0,NW,3.5,-,N/A,,Overcast,310,2013-01-17 10:55:00
1:55 AM,63.3,60.8,91,29.87,10.0,Calm,Calm,-,N/A,,Overcast,0,2013-01-17 11:55:00
2:55 AM,62.6,60.3,92,29.85,10.0,NNW,4.6,-,N/A,,Clear,340,2013-01-17 12:55:00
3:55 AM,61.2,57.9,89,29.84,10.0,NNW,4.6,-,N/A,,Clear,330,2013-01-17 13:55:00
4:55 AM,60.3,57.4,90,29.85,10.0,NNW,4.6,-,N/A,,Clear,330,2013-01-17 14:55:00
5:55 AM,59.9,57.0,90,29.86,10.0,NNW,4.6,-,N/A,,Clear,340,2013-01-17 15:55:00
6:55 AM,59.4,56.8,91,29.87,10.0,NNW,3.5,-,N/A,,Clear,340,2013-01-17 16:55:00
7:55 AM,60.6,58.1,91,29.89,10.0,North,3.5,-,N/A,,Clear,350,2013-01-17 17:55:00
8:55 AM,65.3,60.8,85,29.90,10.0,Calm,Calm,-,N/A,,Clear,0,2013-01-17 18:55:00
9:55 AM,68.9,60.8,75,29.91,10.0,NNW,6.9,17.3,N/A,,Clear,330,2013-01-17 19:55:00
10:03 AM,69.8,60.8,73,29.91,10.0,NNW,6.9,-,N/A,Rain,Light Rain,330,2013-01-17 20:03:00
10:13 AM,69.8,60.8,73,29.91,-9999.0,North,4.6,-,N/A,,Clear,360,2013-01-17 20:13:00
10:21 AM,69.8,60.8,73,29.91,-9999.0,North,5.8,-,N/A,Rain,Light Rain,350,2013-01-17 20:21:00
10:55 AM,78.8,55.4,44,29.92,10.0,NW,6.9,-,N/A,,Mostly Cloudy,320,2013-01-17 20:55:00
11:55 AM,77.0,59.0,54,29.92,10.0,Variable,3.5,-,N/A,,Mostly Cloudy,0,2013-01-17 21:55:00
12:55 PM,78.8,55.4,44,29.87,10.0,Variable,6.9,-,N/A,,Mostly Cloudy,0,2013-01-17 22:55:00
1:55 PM,71.2,59.2,66,29.83,10.0,North,12.7,-,N/A,,Overcast,350,2013-01-17 23:55:00
2:55 PM,72.5,56.1,56,29.81,10.0,NW,11.5,-,N/A,,Overcast,320,2013-01-18 00:55:00
3:55 PM,71.4,56.7,60,29.82,10.0,NW,9.2,-,N/A,,Clear,320,2013-01-18 01:55:00
4:55 PM,70.3,56.1,61,29.84,10.0,NNW,11.5,-,N/A,,Clear,340,2013-01-18 02:55:00
5:55 PM,68.2,56.5,66,29.86,10.0,North,6.9,-,N/A,,Clear,360,2013-01-18 03:55:00
6:55 PM,65.7,56.1,71,29.88,10.0,NNW,4.6,-,N/A,,Clear,340,2013-01-18 04:55:00
7:55 PM,63.9,55.9,75,29.90,10.0,NW,3.5,-,N/A,,Clear,320,2013-01-18 05:55:00
8:55 PM,60.3,55.6,85,29.91,10.0,NW,3.5,-,N/A,,Clear,310,2013-01-18 06:55:00
9:55 PM,61.2,55.9,83,29.90,10.0,NW,3.5,-,N/A,,Clear,320,2013-01-18 07:55:00
10:55 PM,59.7,55.9,87,29.92,10.0,NW,3.5,-,N/A,,Clear,310,2013-01-18 08:55:00
11:55 PM,60.8,56.8,87,29.91,10.0,NNW,3.5,-,N/A,,Clear,330,2013-01-18 09:55:00